Starlink 5365

operational
NORAD ID: 55498 Int'l Des: 2023-015 Owner: SPXS Country: US Constellation: starlink
LEOCIRCULAR

About Starlink 5365

Description loading...

Live Position

Loading 3D Globe...

Upcoming Passes

Altitude History

Altitude vs Time

uPlot chart will show altitude changes over time

Two-Line Element Set

1 55498U 23015BB 25352.55110963 .00000274 00000-0 35323-4 0 9992
2 55498 43.0014 59.4283 0001541 276.1384 83.9282 15.02536454158403
Epoch: Dec 18, 2025 • Age: 9 hours

Current Status

Altitude 569.8 km
Velocity 7.58 km/s
Sub-Earth Point -39.26°S, 68.61°W
Launch Date Feb 2, 2023
Age 2.8 years
Type internet

Technical Details

Classification Payload
Mass 305.00 kg
Dry Mass 290.00 kg
Total Mass 305.00 kg
Length 0.20 m
Diameter 2.80 m
Span 9.00 m
Shape Box + pan
Manufacturer SPXS
Bus Type Starlink
Phase Status In Orbit
Owner/State SPXS/US

Large Constellations

Loading constellations...